TimeHST,TemperatureF,Dew PointF,Humidity,Sea Level PressureIn,VisibilityMPH,Wind Direction,Wind SpeedMPH,Gust SpeedMPH,PrecipitationIn,Events,Conditions,WindDirDegrees,DateUTC
12:54 AM,72.0,66.9,84,30.10,10.0,NE,17.3,-,N/A,,Clear,40,2013-04-19 10:54:00
1:54 AM,69.1,66.0,90,30.09,10.0,East,4.6,-,N/A,,Clear,80,2013-04-19 11:54:00
2:54 AM,71.1,69.1,93,30.08,10.0,NNE,10.4,-,N/A,,Clear,30,2013-04-19 12:54:00
3:54 AM,64.0,64.0,100,30.08,10.0,SE,4.6,-,N/A,,Clear,130,2013-04-19 13:54:00
4:54 AM,64.9,63.0,93,30.08,10.0,SSE,3.5,-,N/A,,Clear,150,2013-04-19 14:54:00
5:54 AM,62.1,62.1,100,30.09,10.0,Calm,Calm,-,N/A,,Clear,0,2013-04-19 15:54:00
6:54 AM,64.9,64.0,97,30.10,10.0,ESE,8.1,-,N/A,,Clear,120,2013-04-19 16:54:00
7:54 AM,73.9,69.1,85,30.11,10.0,Variable,3.5,-,N/A,,Clear,0,2013-04-19 17:54:00
8:54 AM,77.0,72.0,84,30.11,10.0,ENE,5.8,-,N/A,,Scattered Clouds,60,2013-04-19 18:54:00
9:54 AM,82.0,72.0,71,30.12,10.0,SSE,4.6,-,N/A,,Scattered Clouds,160,2013-04-19 19:54:00
10:54 AM,84.9,75.0,72,30.10,10.0,East,10.4,20.7,N/A,,Scattered Clouds,90,2013-04-19 20:54:00
11:54 AM,81.0,75.0,82,30.09,10.0,ENE,15.0,28.8,0.00,,Mostly Cloudy,70,2013-04-19 21:54:00
12:54 PM,82.9,75.0,77,30.07,10.0,East,19.6,29.9,N/A,,Scattered Clouds,80,2013-04-19 22:54:00
1:54 PM,82.0,75.0,79,30.04,10.0,ENE,20.7,31.1,N/A,,Scattered Clouds,70,2013-04-19 23:54:00
2:54 PM,82.9,75.0,77,30.03,10.0,East,16.1,24.2,N/A,,Scattered Clouds,80,2013-04-20 00:54:00
3:54 PM,80.1,73.0,79,30.02,10.0,ENE,19.6,29.9,N/A,,Scattered Clouds,70,2013-04-20 01:54:00
4:54 PM,79.0,72.0,79,30.02,10.0,East,20.7,31.1,N/A,,Scattered Clouds,80,2013-04-20 02:54:00
5:54 PM,77.0,71.1,82,30.03,10.0,ENE,16.1,25.3,N/A,,Scattered Clouds,70,2013-04-20 03:54:00
6:54 PM,75.0,69.1,82,30.06,10.0,East,13.8,25.3,N/A,,Scattered Clouds,80,2013-04-20 04:54:00
7:54 PM,75.0,69.1,82,30.09,10.0,ESE,9.2,-,N/A,,Mostly Cloudy,110,2013-04-20 05:54:00
8:54 PM,73.9,70.0,87,30.10,10.0,ENE,5.8,-,N/A,,Mostly Cloudy,70,2013-04-20 06:54:00
9:54 PM,73.0,70.0,90,30.11,10.0,ESE,8.1,-,N/A,,Overcast,110,2013-04-20 07:54:00
10:54 PM,72.0,70.0,93,30.12,10.0,Calm,Calm,-,N/A,,Mostly Cloudy,0,2013-04-20 08:54:00
11:54 PM,69.1,69.1,100,30.10,10.0,Calm,Calm,-,N/A,,Partly Cloudy,0,2013-04-20 09:54:00